Location: Unspecified
(35.6961°N, 0.0000°E)
Time: 05:27:31
(UTC+00:00)

Explorer 11/Cluster Stage 4 - Pass Details

Date: 30 May 2019
Orbit: 467 x 1260 km, 28.8° (Epoch: 17 June)

Event Time Altitude Azimuth Distance (km) Brightness Sun altitude
Rises 00:30:08 0° 242° (WSW) 4,063 - -32.1°
Reaches altitude 10° 00:33:22 10° 235° (SW) 3,012 - -32.0°
Maximum altitude 00:40:07 39° 170° (S) 1,460 - -31.7°
Drops below altitude 10° 00:45:46 10° 104° (ESE) 2,505 - -31.5°
Exits shadow 00:46:32 - 101° (E) 2,749 9.4 -31.4°
Sets 00:48:13 0° 96° (E) 3,315 9.9 -31.4°
